Berlin, NH

12:53 PM EDT on April 25, 2018 (GMT -0400)
Berlin Municipal

Weather History for KBML - July, 2013

Change the Weather History Date:

Monday, July 22, 2013

  Actual Average Record
Temperature  
Mean Temperature 62 °F -  
Max Temperature 77 °F 74 °F 91 °F (2011)
Min Temperature 48 °F 48 °F 41 °F (1997)
Degree Days  
Heating Degree Days 4    
Growing Degree Days 12 (Base 50)    
Moisture  
Dew Point 54 °F    
Average Humidity 89    
Maximum Humidity 100    
Minimum Humidity 54    
Precipitation  
Precipitation 0.00 in - - ()
Sea Level Pressure  
Sea Level Pressure 30.03 in    
Wind  
Wind Speed 1 mph (South)    
Max Wind Speed 8 mph    
Max Gust Speed -    
Visibility 5 miles    
Events Fog    
Averages and records for this station are not official NWS values.
T = Trace of Precipitation, MM = Missing Value Source: NWS Daily Summary

Daily Weather History Graph

Daily Weather History Graph

Search for Another Location

Airport or City:

Astronomy

Jul. 22, 2013 Rise Set
Actual Time 5:20 AM EDT 8:21 PM EDT
Civil Twilight 4:46 AM EDT 8:55 PM EDT
Nautical Twilight 4:01 AM EDT 9:39 PM EDT
Astronomical Twilight 3:08 AM EDT 10:32 PM EDT
Moon 8:00 PM EDT (7/22) 5:15 AM EDT (7/22)
Length of Visible Light 16h 09m
Length of Day
15h 00m
Full, 100% of the Moon is Illuminated
Jul 22
Full
Jul 22
Full
Jul 29
Last Quarter
Aug 6
New
Aug 14
First Quarter

Hourly Weather History & Observations

Time (EDT) Temp. Dew Point Humidity Pressure Visibility Wind Dir Wind Speed Gust Speed Precip Events Conditions
12:33 AM 51.8 °F 48.2 °F 88% 30.07 in 10.0 mi Calm Calm - N/A   Partly Cloudy
12:52 AM 51.1 °F 50.0 °F 96% 30.07 in 10.0 mi Calm Calm - N/A   Partly Cloudy
1:29 AM 48.2 °F 48.2 °F 100% 30.06 in 1.5 mi Calm Calm - N/A   Mostly Cloudy
1:31 AM 50.0 °F 48.2 °F 94% 30.06 in 0.8 mi Calm Calm - N/A   Mist
1:40 AM 50.0 °F 50.0 °F 100% 30.06 in 0.2 mi Calm Calm - N/A Fog Fog
1:52 AM 51.1 °F 51.1 °F 100% 30.06 in 0.5 mi Calm Calm - N/A Fog Fog
2:04 AM 48.2 °F 48.2 °F 100% 30.06 in 1.5 mi Calm Calm - N/A   Overcast
2:11 AM 50.0 °F 48.2 °F 94% 30.06 in 2.0 mi Calm Calm - N/A   Overcast
2:13 AM 50.0 °F 48.2 °F 94% 30.06 in 1.2 mi Calm Calm - N/A   Overcast
2:18 AM 50.0 °F 48.2 °F 94% 30.06 in 0.2 mi Calm Calm - N/A Fog Fog
2:52 AM 51.1 °F 51.1 °F 100% 30.06 in 0.2 mi Calm Calm - N/A Fog Fog
3:15 AM 50.0 °F 50.0 °F 100% 30.06 in 1.0 mi Calm Calm - N/A   Mist
3:23 AM 50.0 °F 50.0 °F 100% 30.06 in 0.5 mi Calm Calm - N/A Fog Fog
3:38 AM 50.0 °F 50.0 °F 100% 30.06 in 0.2 mi Calm Calm - N/A Fog Fog
3:45 AM 50.0 °F 50.0 °F 100% 30.06 in 0.2 mi Calm Calm - N/A Fog Fog
3:52 AM 50.0 °F 50.0 °F 100% 30.06 in 0.2 mi Calm Calm - N/A Fog Fog
4:44 AM 50.0 °F 50.0 °F 100% 30.06 in 0.2 mi Calm Calm - N/A Fog Fog
4:52 AM 50.0 °F 50.0 °F 100% 30.06 in 0.5 mi Calm Calm - N/A Fog Fog
5:00 AM 50.0 °F 50.0 °F 100% 30.06 in 0.2 mi Calm Calm - N/A Fog Fog
5:52 AM 50.0 °F 50.0 °F 100% 30.07 in 0.2 mi Calm Calm - N/A Fog Fog
6:52 AM 51.1 °F 51.1 °F 100% 30.07 in 0.2 mi Calm Calm - N/A Fog Fog
7:25 AM 53.6 °F 53.6 °F 100% 30.07 in 0.8 mi Calm Calm - N/A   Mist
7:39 AM 53.6 °F 53.6 °F 100% 30.07 in 1.5 mi Calm Calm - N/A   Overcast
7:44 AM 53.6 °F 53.6 °F 100% 30.07 in 3.0 mi Calm Calm - N/A   Overcast
7:52 AM 54.0 °F 54.0 °F 100% 30.08 in 7.0 mi Calm Calm - N/A   Mostly Cloudy
8:02 AM 53.6 °F 53.6 °F 100% 30.07 in 9.0 mi Calm Calm - N/A   Scattered Clouds
8:52 AM 61.0 °F 54.0 °F 78% 30.07 in 10.0 mi North 3.5 mph - N/A   Clear
9:52 AM 66.9 °F 55.0 °F 66% 30.05 in 10.0 mi Calm Calm - N/A   Clear
10:52 AM 72.0 °F 55.9 °F 57% 30.04 in 10.0 mi SSW 4.6 mph - N/A   Clear
11:52 AM 75.9 °F 57.9 °F 54% 30.03 in 10.0 mi South 8.1 mph - N/A   Clear
12:52 PM 75.0 °F 59.0 °F 57% 30.03 in 10.0 mi SSE 8.1 mph - N/A   Mostly Cloudy
1:52 PM 75.9 °F 62.1 °F 62% 30.01 in 10.0 mi South 8.1 mph - N/A   Mostly Cloudy
2:52 PM 73.9 °F 61.0 °F 64% 30.00 in 10.0 mi SE 3.5 mph - N/A   Overcast
3:52 PM 75.9 °F 62.1 °F 62% 29.98 in 10.0 mi South 5.8 mph - N/A   Scattered Clouds
4:52 PM 75.9 °F 63.0 °F 64% 29.96 in 10.0 mi South 5.8 mph - N/A   Mostly Cloudy
5:52 PM 75.0 °F 64.0 °F 69% 29.95 in 10.0 mi North - - N/A   Clear
6:52 PM 73.0 °F 64.0 °F 73% 29.95 in 10.0 mi North - - N/A   Clear
7:52 PM 69.1 °F 63.0 °F 81% 29.94 in 10.0 mi North - - N/A   Clear
8:52 PM 66.9 °F 63.0 °F 87% 29.95 in 10.0 mi North - - N/A   Clear
9:52 PM 63.0 °F 62.1 °F 97% 29.95 in 10.0 mi North - - N/A   Clear
10:52 PM 63.0 °F 61.0 °F 93% 29.94 in 10.0 mi North - - N/A   Partly Cloudy
11:52 PM 62.1 °F 60.1 °F 93% 29.92 in 8.0 mi North - - N/A   Clear